Yankton, SD

9:08 AM CST on December 16, 2017 (GMT -0600)
Gurney Municipal

Weather History for KYKN - October, 2013

Change the Weather History Date:

Sunday, October 6, 2013

  Actual Average Record
Temperature  
Mean Temperature 50 °F -  
Max Temperature 59 °F 66 °F 94 °F (1963)
Min Temperature 42 °F 40 °F 25 °F (1976)
Degree Days  
Heating Degree Days 14    
Moisture  
Dew Point 39 °F    
Average Humidity 74    
Maximum Humidity 93    
Minimum Humidity 34    
Precipitation  
Precipitation 0.00 in - - ()
Sea Level Pressure  
Sea Level Pressure 29.89 in    
Wind  
Wind Speed 16 mph (NW)    
Max Wind Speed 26 mph    
Max Gust Speed 34 mph    
Visibility 10 miles    
Events      
Averages and records for this station are not official NWS values.
T = Trace of Precipitation, MM = Missing Value Source: NWS Daily Summary

Daily Weather History Graph

Daily Weather History Graph

Search for Another Location

Airport or City:

Trip Planner

Search our weather history database for the weather conditions in past years. The results will help you decide how hot, cold, wet, or windy it might be!

Date:

Astronomy

Oct. 06, 2013 Rise Set
Actual Time 7:32 AM CDT 7:01 PM CDT
Civil Twilight 7:04 AM CDT 7:29 PM CDT
Nautical Twilight 6:31 AM CDT 8:02 PM CDT
Astronomical Twilight 5:58 AM CDT 8:35 PM CDT
Moon 9:22 AM CDT (10/6) 7:58 PM CDT (10/6)
Length of Visible Light 12h 25m
Length of Day
11h 28m
Waxing Crescent, 3% of the Moon is Illuminated
Oct 6
Waxing Crescent
Oct 11
First Quarter
Oct 18
Full
Oct 26
Last Quarter
Nov 3
New

Hourly Weather History & Observations

Time (CDT) Temp. Windchill Dew Point Humidity Pressure Visibility Wind Dir Wind Speed Gust Speed Precip Events Conditions
12:15 AM 42.8 °F 35.4 °F 39.2 °F 87% 29.78 in 10.0 mi NNW 15.0 mph 20.7 mph N/A   Overcast
12:35 AM 42.8 °F 35.1 °F 39.2 °F 87% 29.79 in 7.0 mi NNW 16.1 mph 19.6 mph N/A   Overcast
12:55 AM 42.8 °F 35.8 °F 41.0 °F 93% 29.79 in 9.0 mi NNW 13.8 mph 18.4 mph N/A   Overcast
1:15 AM 42.8 °F 35.4 °F 41.0 °F 93% 29.79 in 10.0 mi NNW 15.0 mph 21.9 mph N/A   Overcast
1:35 AM 42.8 °F 35.8 °F 39.2 °F 87% 29.79 in 10.0 mi NNW 13.8 mph - N/A   Overcast
1:55 AM 42.8 °F 35.4 °F 39.2 °F 87% 29.80 in 10.0 mi NNW 15.0 mph - N/A   Overcast
2:15 AM 42.8 °F 36.6 °F 39.2 °F 87% 29.81 in 10.0 mi NW 11.5 mph - N/A   Mostly Cloudy
2:35 AM 42.8 °F 36.2 °F 39.2 °F 87% 29.81 in 10.0 mi WNW 12.7 mph - N/A   Partly Cloudy
2:55 AM 42.8 °F 34.8 °F 39.2 °F 87% 29.82 in 10.0 mi NW 17.3 mph 20.7 mph N/A   Mostly Cloudy
3:15 AM 42.8 °F 35.8 °F 39.2 °F 87% 29.82 in 10.0 mi NW 13.8 mph - N/A   Scattered Clouds
3:35 AM 42.8 °F 35.4 °F 39.2 °F 87% 29.82 in 10.0 mi NW 15.0 mph - N/A   Mostly Cloudy
3:55 AM 42.8 °F 34.8 °F 39.2 °F 87% 29.82 in 10.0 mi WNW 17.3 mph - N/A   Overcast
4:15 AM 42.8 °F 35.1 °F 39.2 °F 87% 29.82 in 10.0 mi WNW 16.1 mph - N/A   Overcast
4:35 AM 42.8 °F 36.6 °F 39.2 °F 87% 29.82 in 10.0 mi WNW 11.5 mph - N/A   Overcast
4:55 AM 44.6 °F 37.4 °F 41.0 °F 87% 29.82 in 10.0 mi WNW 16.1 mph - N/A   Overcast
5:15 AM 44.6 °F 37.2 °F 42.8 °F 93% 29.82 in 4.0 mi WNW 17.3 mph 25.3 mph N/A   Overcast
5:35 AM 44.6 °F 37.2 °F 42.8 °F 93% 29.82 in 10.0 mi NW 17.3 mph 24.2 mph N/A   Overcast
5:55 AM 44.6 °F 36.9 °F 42.8 °F 93% 29.82 in 10.0 mi WNW 18.4 mph 23.0 mph N/A   Overcast
6:15 AM 44.6 °F 36.6 °F 42.8 °F 93% 29.83 in 10.0 mi WNW 19.6 mph 26.5 mph N/A   Overcast
6:35 AM 44.6 °F 36.9 °F 42.8 °F 93% 29.83 in 10.0 mi NW 18.4 mph 26.5 mph N/A   Overcast
6:55 AM 44.6 °F 36.1 °F 42.8 °F 93% 29.83 in 9.0 mi NW 21.9 mph 27.6 mph N/A   Overcast
7:15 AM 44.6 °F 36.6 °F 42.8 °F 93% 29.84 in 10.0 mi NW 19.6 mph 28.8 mph N/A   Overcast
7:35 AM 44.6 °F 37.2 °F 42.8 °F 93% 29.84 in 10.0 mi NW 17.3 mph 29.9 mph N/A   Overcast
7:55 AM 44.6 °F 36.4 °F 42.8 °F 93% 29.83 in 9.0 mi WNW 20.7 mph 25.3 mph N/A   Overcast
8:15 AM 44.6 °F 36.1 °F 42.8 °F 93% 29.84 in 10.0 mi NW 21.9 mph 28.8 mph N/A   Overcast
8:35 AM 44.6 °F 36.6 °F 42.8 °F 93% 29.85 in 10.0 mi NW 19.6 mph 26.5 mph N/A   Overcast
8:55 AM 44.6 °F 36.6 °F 42.8 °F 93% 29.85 in 10.0 mi NW 19.6 mph 26.5 mph N/A   Overcast
9:15 AM 44.6 °F 36.9 °F 42.8 °F 93% 29.86 in 10.0 mi NW 18.4 mph 27.6 mph N/A   Overcast
9:35 AM 44.6 °F 36.4 °F 41.0 °F 87% 29.86 in 10.0 mi NW 20.7 mph 26.5 mph N/A   Overcast
9:55 AM 44.6 °F 36.4 °F 42.8 °F 93% 29.87 in 10.0 mi NW 20.7 mph 28.8 mph N/A   Overcast
10:15 AM 44.6 °F 36.9 °F 42.8 °F 93% 29.87 in 10.0 mi NW 18.4 mph 26.5 mph N/A   Overcast
10:35 AM 44.6 °F 36.9 °F 42.8 °F 93% 29.88 in 4.0 mi NW 18.4 mph 27.6 mph N/A   Overcast
10:55 AM 44.6 °F 36.9 °F 41.0 °F 87% 29.89 in 7.0 mi NW 18.4 mph 27.6 mph N/A   Overcast
11:15 AM 44.6 °F 37.4 °F 41.0 °F 87% 29.90 in 9.0 mi WNW 16.1 mph 28.8 mph N/A   Overcast
11:35 AM 44.6 °F 36.4 °F 41.0 °F 87% 29.90 in 7.0 mi WNW 20.7 mph 27.6 mph N/A   Overcast
11:55 AM 44.6 °F 36.6 °F 41.0 °F 87% 29.90 in 7.0 mi NW 19.6 mph 23.0 mph N/A   Overcast
12:15 PM 44.6 °F 37.2 °F 41.0 °F 87% 29.90 in 10.0 mi NW 17.3 mph 27.6 mph N/A   Overcast
12:35 PM 44.6 °F 37.2 °F 41.0 °F 87% 29.91 in 9.0 mi NW 17.3 mph 27.6 mph N/A   Overcast
12:55 PM 44.6 °F 36.1 °F 42.8 °F 93% 29.90 in 9.0 mi WNW 21.9 mph - N/A   Overcast
1:15 PM 46.4 °F 39.0 °F 41.0 °F 81% 29.90 in 10.0 mi NW 19.6 mph 26.5 mph N/A   Overcast
1:35 PM 46.4 °F 39.2 °F 41.0 °F 81% 29.90 in 10.0 mi NW 18.4 mph 27.6 mph N/A   Overcast
1:55 PM 48.2 °F - 42.8 °F 82% 29.90 in 10.0 mi NW 20.7 mph 25.3 mph N/A   Overcast
2:15 PM 51.8 °F - 42.8 °F 71% 29.89 in 10.0 mi NW 20.7 mph 27.6 mph N/A   Overcast
2:35 PM 53.6 °F - 42.8 °F 67% 29.89 in 10.0 mi NW 21.9 mph 29.9 mph N/A   Overcast
2:55 PM 57.2 °F - 42.8 °F 59% 29.89 in 10.0 mi NW 25.3 mph 31.1 mph N/A   Mostly Cloudy
3:15 PM 57.2 °F - 41.0 °F 55% 29.89 in 10.0 mi NW 24.2 mph 34.5 mph N/A   Partly Cloudy
3:35 PM 57.2 °F - 37.4 °F 48% 29.89 in 10.0 mi NW 26.5 mph 33.4 mph N/A   Clear
3:55 PM 59.0 °F - 35.6 °F 42% 29.90 in 10.0 mi NW 24.2 mph 32.2 mph N/A   Clear
4:15 PM 59.0 °F - 35.6 °F 42% 29.90 in 10.0 mi NW 26.5 mph 32.2 mph N/A   Clear
4:35 PM 59.0 °F - 32.0 °F 36% 29.90 in 10.0 mi NW 25.3 mph 33.4 mph N/A   Clear
4:55 PM 59.0 °F - 30.2 °F 34% 29.90 in 10.0 mi NW 23.0 mph 33.4 mph N/A   Clear
5:15 PM 59.0 °F - 30.2 °F 34% 29.92 in 10.0 mi NW 20.7 mph 32.2 mph N/A   Clear
5:35 PM 59.0 °F - 32.0 °F 36% 29.92 in 10.0 mi NW 19.6 mph 25.3 mph N/A   Clear
5:55 PM 59.0 °F - 33.8 °F 39% 29.93 in 10.0 mi NW 17.3 mph - N/A   Clear
6:15 PM 57.2 °F - 32.0 °F 38% 29.94 in 10.0 mi NW 16.1 mph - N/A   Clear
6:35 PM 57.2 °F - 32.0 °F 38% 29.94 in 10.0 mi WNW 13.8 mph - N/A   Clear
6:55 PM 55.4 °F - 32.0 °F 41% 29.95 in 10.0 mi WNW 12.7 mph - N/A   Clear
7:15 PM 53.6 °F - 32.0 °F 44% 29.96 in 10.0 mi WNW 10.4 mph - N/A   Clear
7:35 PM 51.8 °F - 33.8 °F 50% 29.97 in 10.0 mi WNW 11.5 mph - N/A   Clear
7:55 PM 51.8 °F - 33.8 °F 50% 29.97 in 10.0 mi WNW 11.5 mph - N/A   Clear
8:15 PM 50.0 °F - 33.8 °F 54% 29.98 in 10.0 mi WNW 9.2 mph - N/A   Clear
8:35 PM 48.2 °F - 35.6 °F 62% 29.98 in 10.0 mi WNW 9.2 mph - N/A   Clear
8:55 PM 50.0 °F - 33.8 °F 54% 29.98 in 10.0 mi WNW 9.2 mph - N/A   Clear
9:15 PM 50.0 °F - 35.6 °F 58% 29.99 in 10.0 mi WNW 9.2 mph - N/A   Clear
9:35 PM 48.2 °F - 33.8 °F 58% 30.00 in 10.0 mi WNW 8.1 mph - N/A   Clear
9:55 PM 48.2 °F - 35.6 °F 62% 30.00 in 10.0 mi WNW 8.1 mph - N/A   Clear
10:15 PM 48.2 °F - 35.6 °F 62% 30.00 in 10.0 mi WNW 8.1 mph - N/A   Clear
10:35 PM 48.2 °F - 35.6 °F 62% 30.00 in 10.0 mi West 10.4 mph - N/A   Clear
10:55 PM 48.2 °F - 35.6 °F 62% 30.00 in 10.0 mi West 11.5 mph - N/A   Clear
11:15 PM 50.0 °F - 37.4 °F 62% 30.00 in 10.0 mi West 11.5 mph - N/A   Clear
11:35 PM 48.2 °F - 37.4 °F 66% 30.00 in 10.0 mi West 10.4 mph - N/A   Clear
11:55 PM 48.2 °F - 37.4 °F 66% 30.00 in 10.0 mi West 9.2 mph - N/A   Clear